Location: Unspecified
(0.0000°N, 0.0000°E)
Time: 20:09:13
(UTC+00:00)

USA 184 - Pass Details

Date: 11 June 2023
Orbit: 1078 x 39274 km, 63.5° (Epoch: 28 February)

Event Time Altitude Azimuth Distance (km) Brightness Sun altitude
Rises 08:58:54 0° 220° (SW) 6,094 6.2 40.4°
Reaches altitude 10° 09:01:16 10° 224° (SW) 5,723 6.1 40.9°
Maximum altitude 20:11:25 87° 255° (WSW) 6,844 6.6 -30.0°
Enters shadow 20:26:16 28° 163° (SSE) 4,979 5.7 -33.3°
